Farmington, MO

1:11 AM CDT on October 21, 2019 (GMT -0500)
Farmington Regional

Weather History for KFAM - July, 2019

Change the Weather History Date:

Wednesday, July 10, 2019

  Actual Average Record
Temperature  
Mean Temperature 82 °F -  
Max Temperature 91 °F 84 °F 96 °F (2011)
Min Temperature 72 °F 64 °F 53 °F (1996)
Cooling Degree Days 16    
Growing Degree Days 32 (Base 50)    
Moisture  
Dew Point 73 °F    
Average Humidity 83    
Maximum Humidity 100    
Minimum Humidity 58    
Precipitation  
Precipitation 0.00 in - - ()
Sea Level Pressure  
Sea Level Pressure 30.02 in    
Wind  
Wind Speed 2 mph (West)    
Max Wind Speed 8 mph    
Max Gust Speed 17 mph    
Visibility 10 miles    
Events      
Averages and records for this station are not official NWS values.
T = Trace of Precipitation, MM = Missing Value Source: NWS Daily Summary

Daily Weather History Graph

Daily Weather History Graph

Search for Another Location

Airport or City:

Astronomy

Jul. 10, 2019 Rise Set
Actual Time 5:48 AM CDT 8:25 PM CDT
Civil Twilight 5:17 AM CDT 8:56 PM CDT
Nautical Twilight 4:39 AM CDT 9:34 PM CDT
Astronomical Twilight 3:56 AM CDT 10:17 PM CDT
Moon 2:36 PM CDT (7/10) 1:22 AM CDT (7/10)
Length of Visible Light 15h 38m
Length of Day
14h 37m
Waxing Gibbous, 64% of the Moon is Illuminated
Jul 10
Waxing Gibbous
Jul 16
Full
Jul 24
Last Quarter
Jul 31
New
Aug 7
First Quarter

Hourly Weather History & Observations

Time (CDT) Temp. Heat Index Dew Point Humidity Pressure Visibility Wind Dir Wind Speed Gust Speed Precip Events Conditions
12:56 AM 73.9 °F - 72.0 °F 93% 30.02 in 10.0 mi Calm Calm - N/A   Clear
1:56 AM 73.0 °F - 73.0 °F 100% 30.01 in 10.0 mi Calm Calm - N/A   Clear
2:56 AM 73.0 °F - 72.0 °F 96% 30.01 in 10.0 mi Calm Calm - N/A   Clear
3:56 AM 73.0 °F - 72.0 °F 96% 30.00 in 9.0 mi Calm Calm - N/A   Clear
4:56 AM 72.0 °F - 72.0 °F 100% 30.01 in 8.0 mi Calm Calm - N/A   Clear
5:56 AM 72.0 °F - 72.0 °F 100% 30.02 in 6.0 mi Calm Calm - N/A   Clear
6:56 AM 73.9 °F - 73.0 °F 97% 30.03 in 10.0 mi Calm Calm - N/A   Clear
7:56 AM 79.0 °F - 75.9 °F 90% 30.04 in 10.0 mi Calm Calm - N/A   Clear
8:56 AM 84.0 °F 93.7 °F 77.0 °F 79% 30.05 in 10.0 mi West 4.6 mph - N/A   Clear
9:56 AM 87.1 °F 98.8 °F 77.0 °F 72% 30.06 in 10.0 mi WNW 5.8 mph - N/A   Clear
10:56 AM 89.1 °F 101.4 °F 77.0 °F 67% 30.06 in 10.0 mi Variable 3.5 mph - N/A   Clear
11:56 AM 89.1 °F 100.2 °F 75.9 °F 65% 30.05 in 10.0 mi Variable 6.9 mph - N/A   Partly Cloudy
12:56 PM 90.0 °F 102.5 °F 77.0 °F 65% 30.02 in 10.0 mi NNW 8.1 mph - N/A   Clear
1:56 PM 91.9 °F 103.2 °F 75.0 °F 58% 30.00 in 10.0 mi West 4.6 mph - N/A   Clear
3:56 PM 84.0 °F 91.9 °F 75.0 °F 74% 29.98 in 10.0 mi Variable 4.6 mph 17.3 mph N/A   Partly Cloudy
4:56 PM 80.1 °F 83.6 °F 71.1 °F 74% 29.98 in 10.0 mi WNW 5.8 mph - 0.00 in   Clear
5:56 PM 80.1 °F 83.6 °F 71.1 °F 74% 29.99 in 10.0 mi SSW 6.9 mph - N/A   Clear
6:56 PM 80.1 °F 83.8 °F 72.0 °F 76% 29.99 in 10.0 mi WNW 4.6 mph - N/A   Clear
7:56 PM 78.1 °F - 72.0 °F 81% 30.00 in 10.0 mi West 5.8 mph - N/A   Clear
8:56 PM 77.0 °F - 73.0 °F 88% 30.03 in 10.0 mi SSW 3.5 mph - N/A   Clear
9:56 PM 75.9 °F - 73.0 °F 91% 30.03 in 10.0 mi West 5.8 mph - N/A   Clear
10:56 PM 73.9 °F - 71.1 °F 91% 30.01 in 10.0 mi NW 5.8 mph - N/A   Clear
11:56 PM 73.9 °F - 71.1 °F 91% 30.00 in 10.0 mi WNW 4.6 mph - N/A   Clear